Regional Weather Roundup
Issued by NWS Jackson, KY

Home | Current Version | Previous Version | Text Only | Print | Product List | Glossary Off
Versions: 1 2 3 4 5 6 7 8 9 10 11 12 13 14 15 16 17 18 19 20 21 22 23 24 25 26 27 28

000
ASUS43 KJKL 242110
RWRJKL

EAST KENTUCKY HOURLY WEATHER ROUNDUP
NATIONAL WEATHER SERVICE JACKSON KY
500 PM EDT WED AUG 24 2016

NOTE: "FAIR" INDICATES FEW OR NO CLOUDS BELOW 12,000 FEET WITH
NO SIGNIFICANT WEATHER AND/OR OBSTRUCTIONS TO VISIBILITY.

* THESE REPORTS ARE NOT UNDER NWS QUALITY CONTROL AND MAY NOT
  REPORT WEATHER SUCH AS PRECIPITATION AND FOG.

KYZ079-080-083-085-087-088-110-112-115-119-120-242200
...EASTERN KENTUCKY...

CITY           SKY/WX    TMP DP  RH WIND       PRES   REMARKS
JACKSON        MOSUNNY   85  71  63 VRB5      30.18F HX  90
LONDON         SUNNY     87  67  51 SW9       30.18F HX  90
SOMERSET*      MOSUNNY   86  68  54 S7        30.16F
MONTICELLO*    MOSUNNY  N/A N/A N/A SW10G18   30.17F
WILLIAMSBURG*  PTCLDY    86  72  62 SW3       30.18F HX  92
MIDDLESBORO*   SUNNY     87  70  56 S6        30.19F HX  92
HARLAN APT*    PTCLDY    82  68  61 CALM      30.21F
PIKE CO APT*     N/A     84  71  64 CALM      30.19F
BIG SANDY APT* CLEAR     86  71  60 SW6       30.17F HX  91
MOREHEAD APT*  MOCLDY    84  70  61 S9        30.16F
ASHLAND*       PTSUNNY   86  72  62 W7        30.12S THUNDER HX  92
$$

KYZ035-036-041-042-044-050-067-078-099-242200
...CENTRAL KENTUCKY...

CITY           SKY/WX    TMP DP  RH WIND       PRES   REMARKS
MT STERLING*   MOSUNNY   86  72  62 SW12      30.16S HX  92
FLEMING/MASON* PTSUNNY   85  72  64 S12       30.13F HX  90
DANVILLE*      MOSUNNY   88  72  58 SW12      30.15F HX  94
LEXINGTON      MOSUNNY   88  71  57 SW12      30.13F HX  94
FRANKFORT      MOSUNNY   87  71  58 S16       30.10F HX  93
LOUISVILLE     PTSUNNY   91  71  51 SW16      30.08S HX  97
LEBANON*         N/A     88  72  58 S15       30.13F HX  94
GLASGOW*       CLOUDY    89  73  58 S9        30.13F HX  96
BOWLING GREEN  PTSUNNY   91  71  51 S12       30.11F HX  97
$$

KYZ091>093-OHZ055-061-077-WVZ005-015-034-035-042-242200
...SOUTHERN OHIO/WEST VIRGINIA...

CITY           SKY/WX    TMP DP  RH WIND       PRES   REMARKS
COVINGTON      CLOUDY    86  73  65 S9        30.10S HX  93
COLUMBUS       CLOUDY    81  69  67 S10       30.11R
DAYTON         CLOUDY    82  70  66 S14       30.10S
WILMINGTON     PTSUNNY   82  73  74 S12       30.12S
HUNTINGTON     MOSUNNY   85  70  60 S6        30.14F
CHARLESTON     MOSUNNY   86  68  54 S6        30.16F
PINEVILLE*     MOSUNNY   83  65  53 MISG      30.27F
BECKLEY        MOSUNNY   80  65  59 SW8       30.27F
BLUEFIELD      CLOUDY    75  63  66 CALM      30.31F
LOGAN CO APT*    N/A     82  70  65 CALM      30.19F
$$

VAZ002-007-008-TNZ017-027-036-066-071-242200
...SOUTHWEST VIRGINIA/EAST TENNESSEE...

CITY           SKY/WX    TMP DP  RH WIND       PRES   REMARKS
WISE*          PTSUNNY   81  59  47 SW10      30.29F
JONESVILLE*      N/A     84  70  61 SE6       30.23F
ABINGDON*      PTSUNNY   82  67  61 W6        30.27F
BRISTOL        PTSUNNY   83  67  58 VRB3      30.23F
MORRISTOWN*    PTCLDY    88  70  55 VRB5      30.19F HX  92
SEVIERVILLE*   CLEAR     88  70  55 VRB3      30.18F HX  92
KNOXVILLE      PTSUNNY   89  67  47 SW9       30.17F HX  92
OAK RIDGE      MOSUNNY   89  68  49 VRB3      30.19F HX  93
CROSSVILLE     MOSUNNY   83  68  60 CALM      30.23F
NASHVILLE      CLOUDY    90  71  53 SW6       30.14F HX  96
$$

...KEY TO REMARKS...
VSB - VISIBILITY IN MILES
WCI - WIND CHILL INDEX
HX  - HEAT INDEX

$$




USA.gov is the U.S. government's official web portal to all federal, state and local government web resources and services.